[[{"header":{"parameterUnit":"m.s-1","parameterCategory":1,"la1":30.2991,"la2":30.254,"lo1":-89.0895,"lo2":-89.0444,"dy":0.0017,"dx":0.0017,"nx":28,"ny":28,"refTime":"2025-06-02T09:00:00:Z","depth":0,"parameterNumber":2,"parameterNumberName":"U-component_of_WINDS"},"data":[0,0,0,0,0,0,0,0,0,0,0,0,0,0,0,0,0,0,0,0,0,0,0,0,0,0,0,0,0,0,0,0,0,0,0,0,0,0,0,0,0,0,0,0,0,0,0,0,0,0,0,0,0,0,0,0,0,0,-2.9967,-2.9968,0,-3.0029,-3.0029,-3.003,-2.9985,-2.9983,-2.9981,-2.9979,-3.0042,-3.0046,-3.0049,0,0,0,0,0,0,0,0,0,0,0,0,0,-2.9809,-2.9812,-2.9967,-2.9968,-2.9968,-3.0029,-3.003,-3.003,-2.9985,-2.9983,-2.9981,-2.9978,-3.0041,-3.0045,-3.005,0,0,0,0,0,0,0,0,0,0,0,0,0,-2.9875,-2.9813,-2.9967,-2.9953,-2.9953,-3.0028,-3.003,-3.0031,-2.9986,-2.9983,-2.998,-2.9977,-3.004,-3.0045,-3.005,-3.0143,0,0,-3.0066,-3.0069,0,0,0,0,0,0,0,0,-2.9871,-2.9881,-2.9954,-2.9954,-2.9954,-2.9996,-2.9997,-3.0068,-2.9987,-2.9973,-2.9979,-2.9976,-3.0029,-3.0035,-3.0053,-3.0146,-3.0148,-3.0067,-3.007,-3.0072,-3.0074,0,0,0,0,0,0,0,-2.9867,-2.9878,-2.9991,-2.9956,-2.9955,-2.9944,-2.995,-3.001,-3.0017,-2.9974,-2.9971,-2.9979,-3.0029,-3.0048,-3.0055,-3.0149,-3.0067,-3.0071,-3.0075,-3.0077,-3.0319,-3.0322,0,0,0,0,0,0,-2.9863,-2.9874,-2.9989,-2.9993,-2.9904,-2.9949,-2.9956,-2.9986,-3.0016,-3.0018,-2.9981,-2.9977,-3.0041,-3.0048,-3.0057,-3.0166,-3.0072,-3.0077,-3.008,-3.0315,-3.0319,-3.0323,0,0,0,0,0,0,-2.986,-2.9874,-2.9987,-2.9933,-2.9946,-2.9955,-2.9989,-2.9988,-3.0008,-3.0022,-3.0023,-3.0001,-3.0039,-3.0049,-3.0121,-3.0167,-3.008,-3.0084,-3.0312,-3.0317,-3.0321,-3.0385,0,0,0,0,0,0,-2.9856,-2.9873,-2.9909,-2.9934,-2.9949,-3.0051,-2.9992,-2.9992,-3.0017,-3.0012,-3.004,-3.0042,-3.0037,-3.0114,-3.0126,-3.0173,-3.0089,-3.0307,-3.0314,-3.032,-3.0379,-3.0392,-3.0402,0,0,0,0,0,-2.985,-2.9924,-2.9911,-2.9925,-2.9994,-3.0054,-3.0062,-3.0055,-3.0021,-3.0057,-3.0066,-3.0041,-3.016,-3.0121,-3.0136,-3.0184,-3.0305,-3.0312,-3.0319,-3.0374,-3.0389,-3.0402,0,0,0,0,0,0,-2.9904,-2.9928,-2.9912,-2.9997,-3.0024,-3.0046,-3.009,-3.0072,-3.0109,-3.0102,-3.0092,-3.0099,-3.0174,-3.0187,-3.0143,-3.0275,-3.0227,-3.0237,-3.0264,-3.0278,-3.029,-3.0285,-3.0093,0,0,0,0,0,-2.9926,-2.9973,-2.9991,-3.0064,-3.0078,-3.0082,-3.0108,-3.01,-3.0127,-3.0138,-3.0152,-3.0179,-3.0222,-3.0251,-3.0292,-3.0381,-3.0386,-3.0421,-3.0433,-3.0443,-3.0452,-3.0498,-3.0514,-3.0347,-3.0347,-3.0347,0,0,-2.9972,-2.999,-3.002,-3.0075,-3.0095,-3.0142,-3.0092,-3.0145,-3.018,-3.0146,-3.0214,-3.0226,-3.0255,-3.0336,-3.0372,-3.0349,-3.0499,-3.0452,-3.046,-3.0463,-3.0507,-3.0523,-3.0537,-3.0352,-3.0351,-3.035,0,0,-3.0079,-3.0098,-3.016,-3.0181,-3.0211,-3.0213,-3.0228,-3.0253,-3.0259,-3.0328,-3.0303,-3.0345,-3.042,-3.0442,-3.0463,-3.0578,-3.0556,-3.0591,-3.0652,-3.0698,-3.0711,-3.0722,-3.0762,-3.0776,-3.06,-3.06,-3.06,0,-3.0131,-3.0203,-3.0194,-3.0249,-3.0273,-3.0245,-3.0307,-3.0328,-3.037,-3.0387,-3.036,-3.0454,-3.0472,-3.0556,-3.0584,-3.0602,-3.0618,-3.0587,-3.0709,-3.0721,-3.0732,-3.0769,-3.0784,-3.0604,-3.0604,-3.0603,-3.0603,0,-3.0265,-3.0315,-3.0362,-3.0403,-3.0432,-3.0491,-3.0491,-3.0522,-3.0512,-3.0517,-3.0586,-3.0607,-3.0651,-3.0671,-3.0662,-3.0754,-3.0738,-3.0711,-3.0662,-3.0752,-3.0787,-3.0801,-3.061,-3.0609,-3.0607,-3.0606,0,0,-3.0408,-3.0443,-3.046,-3.0478,-3.0509,-3.0547,-3.0604,-3.0647,-3.0673,-3.0703,-3.075,-3.0814,-3.0789,-3.0813,-3.0806,-3.0846,-3.0933,-3.0813,-3.0814,-3.0834,-3.1035,-3.1054,-3.1071,-3.092,-3.0923,-3.0925,-3.1032,0,-3.0516,-3.0614,-3.0608,-3.0701,-3.0746,-3.0719,-3.0768,-3.0793,-3.0799,-3.0838,-3.0845,-3.089,-3.0854,-3.0868,-3.0906,-3.0915,-3.0973,-3.0907,-3.0962,-3.0964,-3.0954,-3.1089,-3.111,-3.121,-3.1045,-3.1048,-3.105,0,-3.0654,-3.0688,-3.0785,-3.0808,-3.0827,-3.0872,-3.091,-3.0948,-3.0974,-3.0976,-3.1002,-3.0988,-3.1045,-3.0996,-3.1074,-3.1029,-3.1051,-3.1059,-3.1063,-3.1066,-3.1011,-3.1095,-3.1242,-3.1256,-3.1071,-3.107,-3.1068,0,-3.0747,-3.0817,-3.0884,-3.09,-3.0929,-3.0961,-3.0974,-3.0998,-3.1024,-3.1057,-3.1073,-3.1113,-3.1135,-3.1166,-3.1163,-3.1128,-3.1241,-3.1193,-3.1243,-3.1243,-3.1267,-3.1266,-3.1418,-3.1284,-3.1284,-3.1284,-3.1283,0,-3.0867,-3.0927,-3.0925,-3.0967,-3.1033,-3.1025,-3.1091,-3.1101,-3.1122,-3.1164,-3.1144,-3.1184,-3.1178,-3.1218,-3.1216,-3.128,-3.129,-3.1292,-3.1291,-3.1293,-3.1293,-3.1307,-3.1299,-3.1288,-3.1287,-3.1286,-3.1285,0,-3.0981,-3.0983,-3.1053,-3.1075,-3.1081,-3.1129,-3.1147,-3.1186,-3.119,-3.1244,-3.1256,-3.1262,-3.1308,-3.1309,-3.1362,-3.136,-3.1438,-3.1429,-3.1428,-3.1426,-3.1476,-3.1471,-3.1642,-3.1663,-3.1517,-3.1519,-3.152,0,-3.1057,-3.1102,-3.1128,-3.1155,-3.117,-3.1213,-3.1239,-3.1233,-3.1261,-3.1294,-3.1328,-3.1372,-3.1407,-3.1481,-3.1491,-3.1531,-3.1522,-3.1579,-3.1528,-3.1529,-3.1521,-3.1518,-3.1522,-3.1589,-3.1591,-3.1592,-3.1593,0,-3.1191,-3.1189,-3.1227,-3.1265,-3.1296,-3.1326,-3.1354,-3.1377,-3.1374,-3.1406,-3.1452,-3.1479,-3.1533,-3.1576,-3.1615,-3.1628,-3.161,-3.1609,-3.1623,-3.1625,-3.1622,-3.1623,-3.1454,-3.1605,-3.1604,-3.1603,-3.1602,-3.1602,-3.1287,-3.1326,-3.135,-3.1392,-3.1412,-3.1438,-3.1475,-3.1483,-3.1522,-3.1564,-3.1559,-3.161,-3.1635,-3.1684,-3.1701,-3.1741,-3.1721,-3.1741,-3.1746,-3.1751,-3.1756,-3.1617,-3.1749,-3.1748,-3.1748,-3.1748,-3.1747,0,-3.1419,-3.1433,-3.1472,-3.1511,-3.1544,-3.1524,-3.1553,-3.1582,-3.1628,-3.1652,-3.1686,-3.1739,-3.1781,-3.1794,-3.1834,-3.1864,-3.1856,-3.1874,-3.1871,-3.1875,-3.1772,-3.1756,-3.188,-3.188,-3.188,-3.188,-3.1879,-3.1879,-3.1491,-3.1555,-3.1556,-3.1629,-3.1642,-3.1692,-3.171,-3.1734,-3.1753,-3.1813,-3.1847,-3.1855,-3.1875,-3.1916,-3.1953,-3.1956,-3.1971,-3.1993,-3.1992,-3.1895,-3.1882,-3.1869,-3.1854,-3.1996,-3.1996,-3.2091,-3.2092,-3.2092]},{"header":{"parameterUnit":"m.s-1","parameterCategory":1,"la1":30.2991,"la2":30.254,"lo1":-89.0895,"lo2":-89.0444,"dy":0.0017,"dx":0.0017,"nx":28,"ny":28,"refTime":"2025-06-02T09:00:00:Z","depth":0,"parameterNumber":3,"parameterNumberName":"V-component_of_WINDS"},"data":[0,0,0,0,0,0,0,0,0,0,0,0,0,0,0,0,0,0,0,0,0,0,0,0,0,0,0,0,0,0,0,0,0,0,0,0,0,0,0,0,0,0,0,0,0,0,0,0,0,0,0,0,0,0,0,0,0,0,1.9577,1.9577,0,1.9565,1.9565,1.9565,1.9516,1.9515,1.9514,1.9513,1.9502,1.9503,1.9504,0,0,0,0,0,0,0,0,0,0,0,0,0,1.9559,1.956,1.9577,1.9577,1.9577,1.9565,1.9565,1.9565,1.9517,1.9515,1.9514,1.9513,1.9502,1.9503,1.9504,0,0,0,0,0,0,0,0,0,0,0,0,0,1.9559,1.956,1.9577,1.9551,1.9549,1.9565,1.9565,1.9565,1.9517,1.9515,1.9514,1.9512,1.9502,1.9503,1.9504,1.9544,0,0,1.9507,1.9508,0,0,0,0,0,0,0,0,1.9559,1.956,1.9555,1.9553,1.955,1.954,1.9554,1.9558,1.9517,1.9529,1.9513,1.9511,1.9516,1.9516,1.9518,1.9544,1.9543,1.9507,1.9508,1.9508,1.9509,0,0,0,0,0,0,0,1.9559,1.956,1.9572,1.9555,1.9552,1.9541,1.9539,1.9555,1.9532,1.9528,1.9524,1.9524,1.9515,1.9517,1.9517,1.9543,1.9507,1.9508,1.9509,1.9509,1.9601,1.9602,0,0,0,0,0,0,1.9563,1.9561,1.9573,1.9572,1.9551,1.9542,1.954,1.9545,1.9532,1.9528,1.9525,1.9521,1.9515,1.9516,1.9516,1.9562,1.9508,1.9509,1.951,1.9599,1.9601,1.9603,0,0,0,0,0,0,1.9563,1.9564,1.9573,1.9565,1.9565,1.9544,1.9551,1.9546,1.9548,1.953,1.9526,1.9531,1.9514,1.9515,1.9537,1.9561,1.951,1.9511,1.9597,1.96,1.9602,1.9653,0,0,0,0,0,0,1.9562,1.9565,1.9579,1.9566,1.9566,1.9594,1.9552,1.9547,1.955,1.9545,1.9534,1.9531,1.9513,1.9536,1.9538,1.9561,1.9512,1.9595,1.9598,1.9601,1.9649,1.9657,1.9664,0,0,0,0,0,1.9562,1.9595,1.958,1.9582,1.9584,1.9595,1.9596,1.9574,1.9552,1.9567,1.9555,1.9531,1.9558,1.9539,1.9541,1.9565,1.9593,1.9597,1.9601,1.9646,1.9656,1.9664,0,0,0,0,0,0,1.9612,1.9592,1.9576,1.9606,1.9603,1.9587,1.9605,1.9585,1.9588,1.9583,1.9557,1.9555,1.9581,1.9575,1.9554,1.9603,1.9572,1.9576,1.9605,1.9614,1.9621,1.9621,1.9513,0,0,0,0,0,1.9626,1.9637,1.962,1.9647,1.9646,1.9626,1.963,1.9614,1.961,1.9608,1.9598,1.9595,1.9603,1.9609,1.9615,1.9649,1.9646,1.9666,1.9674,1.968,1.9684,1.9701,1.9709,1.9616,1.9616,1.9616,0,0,1.9656,1.9647,1.9655,1.9657,1.9652,1.9664,1.9625,1.9639,1.9648,1.961,1.963,1.9623,1.9618,1.9647,1.9659,1.9643,1.9709,1.9685,1.969,1.969,1.9706,1.9714,1.9722,1.9619,1.9618,1.9618,0,0,1.9716,1.9711,1.9732,1.9729,1.9722,1.9709,1.9714,1.9702,1.9696,1.9715,1.9688,1.9698,1.9712,1.9709,1.9709,1.9769,1.9747,1.9772,1.981,1.9827,1.9834,1.984,1.986,1.9868,1.9776,1.9776,1.9776,0,1.9754,1.9769,1.9746,1.9762,1.9763,1.973,1.9752,1.975,1.9746,1.9748,1.973,1.9747,1.9741,1.9768,1.9782,1.9785,1.9789,1.9772,1.9835,1.9841,1.9846,1.9865,1.9873,1.9779,1.9779,1.9779,1.9778,0,1.9816,1.9827,1.9846,1.9842,1.9846,1.9865,1.9844,1.9851,1.9835,1.9824,1.9844,1.9836,1.984,1.9846,1.983,1.987,1.986,1.9839,1.9807,1.9859,1.9876,1.9883,1.9783,1.9782,1.9782,1.9781,0,0,1.9905,1.9889,1.9896,1.9893,1.9884,1.9893,1.9911,1.9914,1.9919,1.9919,1.9932,1.9945,1.9925,1.9926,1.991,1.9925,1.9971,1.9902,1.9901,1.9914,2.0014,2.0028,2.0037,1.9958,1.9959,1.996,2.0014,0,1.9961,1.9988,1.9968,2.0,2.001,1.9979,1.9994,1.999,1.9981,1.9988,1.9977,1.9986,1.996,1.996,1.9974,1.9963,1.9991,1.9959,1.9969,1.997,1.9969,2.0046,2.0062,2.0113,2.002,2.0022,2.0022,0,2.0029,2.003,2.0062,2.0051,2.0054,2.0068,2.0069,2.0077,2.0072,2.0064,2.0065,2.0045,2.0062,2.0032,2.0054,2.0033,2.0036,2.0031,2.0033,2.0031,1.9998,2.0045,2.0129,2.0136,2.0033,2.0032,2.0031,0,2.0089,2.0099,2.0119,2.0119,2.0106,2.0116,2.0112,2.0105,2.0108,2.011,2.0111,2.0115,2.0117,2.0121,2.0102,2.0083,2.0127,2.0095,2.012,2.012,2.0129,2.0128,2.0212,2.0134,2.0134,2.0134,2.0134,0,2.0152,2.0173,2.0146,2.0158,2.018,2.0158,2.018,2.0173,2.0167,2.0178,2.0152,2.0163,2.0139,2.0147,2.0134,2.0153,2.0155,2.0148,2.0144,2.015,2.015,2.015,2.0145,2.0136,2.0136,2.0135,2.0135,0,2.0222,2.0205,2.0225,2.0211,2.0208,2.0225,2.0214,2.0225,2.0214,2.0227,2.0229,2.0212,2.022,2.0203,2.0209,2.02,2.0227,2.0218,2.0228,2.0225,2.025,2.0247,2.0335,2.0345,2.0262,2.0263,2.0264,0,2.0262,2.0277,2.0265,2.027,2.0267,2.0275,2.0278,2.0257,2.0261,2.0257,2.0268,2.0274,2.0278,2.0293,2.0281,2.0285,2.0275,2.0306,2.0276,2.028,2.0274,2.0272,2.0273,2.0311,2.0312,2.0313,2.0314,0,2.0336,2.0326,2.0331,2.0333,2.0337,2.0338,2.0337,2.0343,2.032,2.0326,2.0334,2.0336,2.0343,2.0349,2.0351,2.0346,2.0326,2.0324,2.0329,2.0334,2.0339,2.0335,2.0243,2.0321,2.0321,2.032,2.032,2.0319,2.0391,2.0402,2.0395,2.0402,2.0399,2.0398,2.0407,2.0397,2.0403,2.0406,2.0394,2.0404,2.0399,2.0399,2.0397,2.0405,2.0392,2.04,2.0402,2.0404,2.0407,2.0339,2.0406,2.0406,2.0406,2.0405,2.0405,0,2.0461,2.0455,2.0461,2.046,2.0465,2.0446,2.0444,2.045,2.0459,2.0456,2.046,2.0469,2.0475,2.0464,2.0468,2.0476,2.0467,2.0478,2.0476,2.0476,2.042,2.0414,2.0485,2.0485,2.0485,2.0485,2.0485,2.0485,2.0498,2.0516,2.0507,2.0523,2.0517,2.0527,2.0527,2.0527,2.0524,2.0535,2.0539,2.0532,2.0526,2.0529,2.0534,2.053,2.0533,2.0546,2.054,2.0488,2.048,2.0472,2.0466,2.0547,2.0547,2.0594,2.0595,2.0595]}]]